Location: ????????
(55.0097°N, 38.5678°E)
Time: 06:18:19
(UTC+00:00)

Cosmos 2369 Rocket - Visible Passes

Search period start: 16 July 2024 00:00
Search period end: 26 July 2024 00:00
Orbit: 828 x 852 km, 71.0° (Epoch: 15 July)

Date Brightness Start Highest point End Pass type
(mag) Time Alt. Az. Time Alt. Az. Time Alt. Az.
16 Jul 2.9 21:22:27 20° SSE 21:25:50 39° ESE 21:31:02 10° NE visible
16 Jul 2.8 23:04:18 10° SW 23:09:45 52° NW 23:15:18 10° NNE visible
17 Jul 2.9 21:07:00 20° SSE 21:10:18 37° ESE 21:15:26 10° NE visible
17 Jul 2.7 22:48:46 10° SW 22:54:11 55° NW 22:59:44 10° NNE visible
18 Jul 3.0 20:51:33 20° SSE 20:54:46 36° ESE 20:59:50 10° NE visible
18 Jul 2.7 22:33:17 11° SW 22:38:35 57° NW 22:44:10 10° NNE visible
19 Jul 4.2 00:19:32 10° WNW 00:23:50 22° NNW 00:28:09 10° NNE visible
19 Jul 3.0 20:36:01 19° SSE 20:39:14 34° ESE 20:44:15 10° NE visible
19 Jul 2.6 22:17:46 11° SW 22:23:00 59° NW 22:28:36 10° NNE visible
20 Jul 4.2 00:03:51 10° WNW 00:08:12 22° NNW 00:12:35 10° NNE visible
20 Jul 3.1 20:20:28 18° SSE 20:23:41 32° ESE 20:28:38 10° NE visible
20 Jul 2.6 22:02:12 12° SW 22:07:25 62° NW 22:13:02 10° NNE visible
20 Jul 4.2 23:48:11 10° WNW 23:52:35 23° NNW 23:57:01 10° NNE visible
21 Jul 3.1 20:04:51 17° SSE 20:08:09 31° ESE 20:13:02 10° NE visible
21 Jul 2.5 21:46:35 12° SW 21:51:51 64° NW 21:57:29 10° NNE visible
21 Jul 4.2 23:32:31 10° W 23:36:57 23° NNW 23:41:26 10° NNE visible
22 Jul 3.1 19:49:10 16° SSE 19:52:37 29° ESE 19:57:25 10° NE visible
22 Jul 2.5 21:30:54 11° SW 21:36:16 67° NW 21:41:55 10° NNE visible
22 Jul 4.2 23:16:51 10° W 23:21:20 24° NNW 23:25:53 10° NNE visible
23 Jul 3.2 19:33:25 15° SSE 19:37:05 28° ESE 19:41:48 10° NE visible
23 Jul 2.4 21:15:09 10° SW 21:20:41 70° NW 21:26:21 10° NNE visible
23 Jul 4.2 23:01:10 10° W 23:05:43 24° NNW 23:10:19 10° NNE visible
24 Jul 3.2 19:17:36 13° SSE 19:21:33 27° ESE 19:26:11 10° NE visible
24 Jul 2.4 20:59:30 10° SW 21:05:07 73° NW 21:10:47 10° NNE visible
24 Jul 4.2 22:45:30 10° W 22:50:06 25° NNW 22:54:45 10° NNE visible
25 Jul 4.7 00:32:47 10° NW 00:36:12 16° N 00:39:36 10° NE visible
25 Jul 3.3 19:01:39 10° SSE 19:06:02 25° ESE 19:10:34 10° NE visible
25 Jul 2.3 20:43:56 10° SW 20:49:32 76° NW 20:55:13 10° NNE visible
25 Jul 4.2 22:29:50 10° W 22:34:29 26° NNW 22:39:11 10° NNE visible
